• In Hungary
  • List of Countries
  • For 7 days
  • Water Temperature
  • Satellite Maps
  • Weather Map
  • News
  • Weather Widgets
  • user-avatar
    Login

    Hourly Weather Lubango

    Today, 25 November, Saturday

    Time Temperature Precipitation Wind Pressure Humidity
    00:00 +15°C° 0.2 mm 0 mps 609 mmHg 70%
    01:00 +15°C° 0 mm 0 mps 609 mmHg 72%
    02:00 +14°C° 0.1 mm 0 mps 608 mmHg 74%
    03:00 +14°C° 0.1 mm 0 mps 608 mmHg 75%
    04:00 +14°C° 0.1 mm 0 mps 608 mmHg 76%
    05:00 +15°C° 0 mm 0 mps 609 mmHg 70%
    06:00 +17°C° 0 mm 0 mps 609 mmHg 65%
    07:00 +18°C° 0 mm 0 mps 610 mmHg 60%
    08:00 +22°C° 0 mm 1 mps 611 mmHg 52%
    09:00 +25°C° 0 mm 1 mps 612 mmHg 45%
    10:00 +27°C° 0 mm 2 mps 613 mmHg 37%
    11:00 +27°C° 0.1 mm 2 mps 612 mmHg 38%
    12:00 +27°C° 0.1 mm 2 mps 611 mmHg 39%
    13:00 +27°C° 0.1 mm 2 mps 611 mmHg 39%
    14:00 +26°C° 0.1 mm 2 mps 610 mmHg 40%
    15:00 +26°C° 0.1 mm 3 mps 610 mmHg 41%
    16:00 +26°C° 0.1 mm 3 mps 609 mmHg 41%
    17:00 +24°C° 0 mm 3 mps 609 mmHg 47%
    18:00 +21°C° 0 mm 3 mps 609 mmHg 54%
    19:00 +19°C° 0 mm 3 mps 608 mmHg 60%
    20:00 +18°C° 0 mm 2 mps 609 mmHg 64%
    21:00 +17°C° 0 mm 2 mps 609 mmHg 68%
    22:00 +16°C° 0 mm 1 mps 609 mmHg 72%
    23:00 +16°C° 0 mm 1 mps 609 mmHg 73%

    Tomorrow, 26 November, Sunday

    Time Temperature Precipitation Wind Pressure Humidity
    00:00 +15°C° 0 mm 1 mps 609 mmHg 74%
    01:00 +15°C° 0 mm 1 mps 608 mmHg 75%
    02:00 +15°C° 0.1 mm 1 mps 608 mmHg 75%
    03:00 +15°C° 0.1 mm 1 mps 608 mmHg 76%
    04:00 +15°C° 0.1 mm 1 mps 608 mmHg 77%
    05:00 +16°C° 0 mm 1 mps 608 mmHg 72%
    06:00 +16°C° 0 mm 1 mps 609 mmHg 68%
    07:00 +16°C° 0 mm 0 mps 610 mmHg 63%
    08:00 +21°C° 0 mm 1 mps 611 mmHg 52%
    09:00 +24°C° 0 mm 1 mps 612 mmHg 42%
    10:00 +26°C° 0 mm 2 mps 613 mmHg 31%
    11:00 +27°C° 0 mm 2 mps 612 mmHg 28%
    12:00 +29°C° 0 mm 2 mps 612 mmHg 26%
    13:00 +30°C° 0 mm 3 mps 612 mmHg 24%
    14:00 +29°C° 0 mm 3 mps 612 mmHg 28%
    15:00 +28°C° 0 mm 4 mps 611 mmHg 31%
    16:00 +27°C° 0 mm 5 mps 610 mmHg 34%
    17:00 +23°C° 0 mm 4 mps 610 mmHg 44%
    18:00 +21°C° 0 mm 4 mps 609 mmHg 53%
    19:00 +18°C° 0 mm 3 mps 609 mmHg 63%
    20:00 +17°C° 0 mm 3 mps 609 mmHg 68%
    21:00 +16°C° 0 mm 2 mps 610 mmHg 74%
    22:00 +15°C° 0 mm 2 mps 610 mmHg 79%
    23:00 +15°C° 0 mm 2 mps 610 mmHg 82%

    Day after tomorrow, 27 November, Monday

    Time Temperature Precipitation Wind Pressure Humidity
    00:00 +14°C° 0 mm 1 mps 609 mmHg 84%
    01:00 +14°C° 0 mm 1 mps 609 mmHg 87%
    02:00 +14°C° 0 mm 1 mps 608 mmHg 87%
    03:00 +13°C° 0 mm 1 mps 608 mmHg 88%
    04:00 +13°C° 0 mm 1 mps 608 mmHg 88%
    05:00 +14°C° 0 mm 1 mps 608 mmHg 82%
    06:00 +15°C° 0 mm 1 mps 609 mmHg 76%
    07:00 +16°C° 0 mm 1 mps 610 mmHg 69%
    08:00 +20°C° 0 mm 1 mps 611 mmHg 58%
    09:00 +21°C° 0 mm 2 mps 612 mmHg 47%
    10:00 +25°C° 0 mm 2 mps 613 mmHg 35%
    11:00 +26°C° 0 mm 2 mps 613 mmHg 32%
    12:00 +27°C° 0 mm 3 mps 613 mmHg 29%
    13:00 +29°C° 0 mm 3 mps 613 mmHg 25%
    14:00 +28°C° 0 mm 4 mps 612 mmHg 29%
    15:00 +27°C° 0 mm 4 mps 611 mmHg 33%
    16:00 +25°C° 0 mm 4 mps 610 mmHg 37%
    17:00 +22°C° 0 mm 4 mps 610 mmHg 47%
    18:00 +20°C° 0 mm 3 mps 610 mmHg 57%
    19:00 +18°C° 0 mm 3 mps 610 mmHg 67%
    20:00 +17°C° 0 mm 3 mps 610 mmHg 72%
    21:00 +16°C° 0 mm 2 mps 610 mmHg 77%
    22:00 +15°C° 0 mm 2 mps 610 mmHg 82%
    23:00 +15°C° 0 mm 2 mps 609 mmHg 84%

    28 November, Tuesday

    Time Temperature Precipitation Wind Pressure Humidity
    00:00 +14°C° 0 mm 2 mps 609 mmHg 86%
    01:00 +14°C° 0 mm 1 mps 608 mmHg 88%
    02:00 +13°C° 0 mm 1 mps 608 mmHg 89%
    03:00 +13°C° 0 mm 1 mps 608 mmHg 90%
    04:00 +13°C° 0 mm 1 mps 607 mmHg 91%
    05:00 +14°C° 0 mm 1 mps 608 mmHg 84%
    06:00 +15°C° 0 mm 1 mps 609 mmHg 77%
    07:00 +16°C° 0 mm 1 mps 610 mmHg 70%
    08:00 +20°C° 0 mm 1 mps 611 mmHg 57%
    09:00 +23°C° 0 mm 1 mps 612 mmHg 43%
    10:00 +26°C° 0 mm 1 mps 613 mmHg 30%
    11:00 +28°C° 0 mm 2 mps 613 mmHg 27%
    12:00 +29°C° 0 mm 2 mps 613 mmHg 24%
    13:00 +30°C° 0 mm 3 mps 612 mmHg 21%
    14:00 +29°C° 0 mm 3 mps 612 mmHg 22%
    15:00 +28°C° 0 mm 4 mps 611 mmHg 24%
    16:00 +28°C° 0 mm 4 mps 610 mmHg 26%
    17:00 +25°C° 0 mm 4 mps 610 mmHg 34%
    18:00 +22°C° 0 mm 3 mps 610 mmHg 42%
    19:00 +19°C° 0 mm 3 mps 609 mmHg 49%
    20:00 +18°C° 0 mm 2 mps 609 mmHg 55%
    21:00 +17°C° 0 mm 2 mps 609 mmHg 60%
    22:00 +16°C° 0 mm 1 mps 609 mmHg 65%
    23:00 +15°C° 0 mm 1 mps 609 mmHg 67%

    29 November, Wednesday

    Time Temperature Precipitation Wind Pressure Humidity
    00:00 +15°C° 0 mm 1 mps 609 mmHg 69%
    01:00 +14°C° 0 mm 1 mps 608 mmHg 71%
    02:00 +14°C° 0 mm 1 mps 608 mmHg 72%
    03:00 +14°C° 0 mm 1 mps 608 mmHg 73%
    04:00 +13°C° 0 mm 1 mps 607 mmHg 73%
    05:00 +15°C° 0 mm 1 mps 608 mmHg 66%
    06:00 +15°C° 0 mm 0 mps 609 mmHg 59%
    07:00 +16°C° 0 mm 0 mps 611 mmHg 51%
    08:00 +21°C° 0 mm 1 mps 612 mmHg 41%
    09:00 +24°C° 0 mm 1 mps 613 mmHg 30%
    10:00 +27°C° 0 mm 2 mps 614 mmHg 20%
    11:00 +29°C° 0 mm 2 mps 613 mmHg 18%
    12:00 +30°C° 0 mm 3 mps 613 mmHg 16%
    13:00 +31°C° 0 mm 3 mps 612 mmHg 14%
    14:00 +30°C° 0 mm 3 mps 612 mmHg 16%
    15:00 +30°C° 0 mm 4 mps 611 mmHg 17%
    16:00 +29°C° 0 mm 4 mps 610 mmHg 18%
    17:00 +26°C° 0 mm 4 mps 610 mmHg 24%
    18:00 +22°C° 0 mm 3 mps 610 mmHg 29%
    19:00 +19°C° 0 mm 3 mps 609 mmHg 34%
    20:00 +18°C° 0 mm 2 mps 609 mmHg 38%
    21:00 +18°C° 0 mm 1 mps 609 mmHg 41%
    22:00 +16°C° 0 mm 1 mps 609 mmHg 45%
    23:00 +15°C° 0 mm 1 mps 609 mmHg 46%

    30 November, Thursday

    Time Temperature Precipitation Wind Pressure Humidity
    00:00 +15°C° 0 mm 1 mps 609 mmHg 47%
    01:00 +14°C° 0 mm 1 mps 608 mmHg 48%
    02:00 +15°C° 0 mm 1 mps 608 mmHg 48%
    03:00 +15°C° 0 mm 1 mps 608 mmHg 47%
    04:00 +15°C° 0 mm 1 mps 608 mmHg 47%
    05:00 +16°C° 0 mm 1 mps 609 mmHg 44%
    06:00 +16°C° 0 mm 0 mps 610 mmHg 40%
    07:00 +17°C° 0 mm 0 mps 611 mmHg 37%
    08:00 +21°C° 0 mm 1 mps 612 mmHg 31%
    09:00 +24°C° 0 mm 1 mps 613 mmHg 25%
    10:00 +27°C° 0 mm 1 mps 614 mmHg 19%
    11:00 +28°C° 0 mm 2 mps 613 mmHg 19%
    12:00 +29°C° 0 mm 2 mps 613 mmHg 18%
    13:00 +30°C° 0 mm 3 mps 613 mmHg 17%
    14:00 +29°C° 0 mm 3 mps 612 mmHg 19%
    15:00 +28°C° 0 mm 3 mps 611 mmHg 21%
    16:00 +26°C° 0 mm 4 mps 611 mmHg 22%
    17:00 +24°C° 0 mm 3 mps 610 mmHg 25%
    18:00 +21°C° 0 mm 3 mps 610 mmHg 27%
    19:00 +19°C° 0 mm 2 mps 610 mmHg 30%
    20:00 +18°C° 0 mm 2 mps 610 mmHg 32%
    21:00 +17°C° 0 mm 2 mps 610 mmHg 33%
    22:00 +18°C° 0 mm 1 mps 610 mmHg 35%
    23:00 +16°C° 0.2 mm 1 mps 610 mmHg 37%
    Show more